Flag Weather past 2 weeks in Hamar, Norway

Now
32 °F

Chilly.


Feels Like: 32 °F
Forecast: 31 / 36 °F
Wind: No wind

Location: Haugedalshogda

Current Time: Nov 23, 2014 at 10:11:35 PM

Latest Report: Nov 23, 2014 at 9:00 PM


Visibility: N/A

Pressure: 30.06 "Hg

Humidity: 96%

Dew point: 31 °F

Location of HamarLocation

Historic Weather in Hamar — Graph

°F

Hamar temperature yesterday

Maximum temperature yesterday: 28 °F (at 12:00 AM)
Minimum temperature yesterday: 24 °F (at 5:00 AM)
Average temperature yesterday: 27 °F

Past Weeks' High & Low Weather Summary

 TemperatureHumidityPressure
High45 °F (Nov 9, 5:00 PM)97% (Nov 9, 12:00 AM)30.58 "Hg (Nov 9, 12:00 AM)
Low24 °F (Nov 22, 5:00 AM)85% (Nov 13, 1:00 PM)29.72 "Hg (Nov 10, 11:00 PM)
Average34 °F94%30.25 "Hg
* Reported Nov 8 8:00 PM — Nov 23 8:00 PM, Hamar, Weather by CustomWeather, © 2014

Note: Actual official high and low records may vary slightly from our data, if they occured in-between our weather recording intervals... More about our weather records

Advertising

Hamar weather history for previous 24 hours

 ConditionsComfort  
Time TempWeatherWind HumidityBarometerVisibility
8:00 PM
Nov 23
32 °FChilly.1 mph96%30.09 "HgN/A
7:00 PM32 °FChilly.1 mph96%30.14 "HgN/A
6:00 PM32 °FChilly.1 mph95%30.17 "HgN/A
5:00 PM32 °FChilly.No wind95%30.20 "HgN/A
4:00 PM32 °FChilly.1 mph95%30.22 "HgN/A
3:00 PM32 °FChilly.No wind95%30.24 "HgN/A
2:00 PM32 °FChilly.No wind94%30.27 "HgN/A
1:00 PM32 °FChilly.No wind94%30.29 "HgN/A
12:00 PM32 °FChilly.1 mph94%30.30 "HgN/A
11:00 AM32 °FChilly.1 mph95%30.32 "HgN/A
10:00 AM31 °FChilly.1 mph95%30.33 "HgN/A
9:00 AM30 °FChilly.1 mph95%30.33 "HgN/A
8:00 AM29 °FChilly.No wind95%30.33 "HgN/A
7:00 AM29 °FChilly.No wind95%30.33 "HgN/A
6:00 AM29 °FChilly.1 mph95%30.34 "HgN/A
5:00 AM29 °FChilly.1 mph94%30.34 "HgN/A
4:00 AM29 °FChilly.No wind94%30.34 "HgN/A
3:00 AM28 °FChilly.1 mph94%30.36 "HgN/A
2:00 AM28 °FChilly.No wind94%30.36 "HgN/A
1:00 AM28 °FChilly.1 mph94%30.37 "HgN/A
12:00 AM27 °FChilly.1 mph94%30.37 "HgN/A
11:00 PM
Nov 22
26 °FChilly.1 mph94%30.37 "HgN/A
10:00 PM26 °FChilly.1 mph94%30.37 "HgN/A
Weather by CustomWeather, © 2014

See weather overviewHow to use our weather pages